Voltar ao catálogo

SL-12 DEB

LostHEO
NORAD 41810·DEBRIS·🇷🇺 Russia

Lançado Dec 25, 2006 de Baikonur Cosmodrome

Loading…

Próximas Passagens (próximas 24 horas)

TLE

ObsoletoSource: Space-Track

Época: Dec 1, 2018, 19:08 UTC

1 41810U 06062Q   18335.79776676  .00073383  00000-0  54076-2 0  9991
2 41810  64.6742 251.6204 5431013 350.8529   2.2889  4.97199423 38776

Acompanhe SL-12 DEB em tempo real com AllMySat

Download on the App Store